Tracking 35275 objects as of 8-Sep-2026
HD Live streaming from Space Station
objects crossing your sky now

STARLINK-30402

Track STARLINK-30402 now!
10-day predictions
STARLINK-30402 is classified as:


NORAD ID: 57827
Int'l Code: 2023-138V
Launch date: September 9, 2023
Source: United States (US)
Launch site: AIR FORCE EASTERN TEST RANGE (AFETR)
Your satellite tracking list
Your tracking list is empty




NASA's NSSDC Master Catalog

Two Line Element Set (TLE):
1 57827U 23138V   26250.16617732  .00000663  00000-0  33622-4 0  9999
2 57827  43.0049 289.2252 0001460 266.2870  93.7815 15.27577771166480
Source of the keplerian elements: AFSPC